Location: ????????
(55.3155°N, 39.2900°E)
Time: 18:15:20
(UTC+00:00)

ACS3 Solar Sail - Pass Details

Date: 17 November 2025
Orbit: 889 x 1003 km, 97.3° (Epoch: 06 December)

Event Time Altitude Azimuth Distance (km) Brightness Sun altitude
Rises 23:35:38 0° 18° (NNE) 3,568 5.3 -44.5°
Reaches altitude 10° 23:38:26 10° 31° (NNE) 2,639 4.6 -44.1°
Enters shadow 23:40:55 21° 52° (NE) 1,992 3.9 -43.9°
